EXS2031 CYYT-KJFK

Flight info

Callsign EXS2031
Flight time 2h 36m
Altitude 36000
Route TEXED DCT BRIDG DCT TUSKY DCT PLYMM PARCH4
Aircraft B738/M-SDE2E3FGHIRWXY/LB1

Departure

Time 2026-04-19 03:04
Airport St. John's International Airport (CYYT)

Arrival

Time 2026-04-19 05:40
Airport John F. Kennedy International Airport (KJFK)
Time Latitude Longitude Altitude Speed Heading
2026-04-19 02:26 47.61394 -52.74328 485 ft 0 kts 202°
2026-04-19 02:52 47.61397 -52.74325 472 ft 2 kts 204°
2026-04-19 02:52 47.61414 -52.74313 474 ft 3 kts 214°
2026-04-19 02:53 47.61430 -52.74295 469 ft 3 kts 230°
2026-04-19 02:53 47.61440 -52.74271 469 ft 3 kts 254°
2026-04-19 02:53 47.61442 -52.74243 470 ft 3 kts 283°
2026-04-19 02:53 47.61440 -52.74229 470 ft 0 kts 293°
2026-04-19 02:58 47.61450 -52.74263 472 ft 5 kts 293°
2026-04-19 02:58 47.61475 -52.74333 474 ft 11 kts 313°
2026-04-19 02:58 47.61527 -52.74326 473 ft 3 kts 76°
2026-04-19 02:58 47.61562 -52.74275 477 ft 11 kts 40°
2026-04-19 02:59 47.61640 -52.74294 469 ft 15 kts 317°
2026-04-19 02:59 47.61729 -52.74417 478 ft 19 kts 315°
2026-04-19 02:59 47.61842 -52.74560 480 ft 23 kts 322°
2026-04-19 02:59 47.61965 -52.74710 478 ft 16 kts 320°
2026-04-19 03:00 47.62021 -52.74759 477 ft 7 kts
2026-04-19 03:00 47.62071 -52.74698 477 ft 12 kts 49°
2026-04-19 03:00 47.62147 -52.74623 476 ft 16 kts 342°
2026-04-19 03:00 47.62248 -52.74750 484 ft 23 kts 319°
2026-04-19 03:01 47.62383 -52.74922 481 ft 27 kts 319°
2026-04-19 03:01 47.62494 -52.75064 484 ft 16 kts 320°
2026-04-19 03:01 47.62531 -52.75175 483 ft 10 kts 270°
2026-04-19 03:01 47.62578 -52.75186 482 ft 11 kts 67°
2026-04-19 03:02 47.62535 -52.75116 481 ft 11 kts 139°
2026-04-19 03:02 47.62519 -52.75095 484 ft 0 kts 138°
2026-04-19 03:03 47.62505 -52.75077 484 ft 10 kts 139°
2026-04-19 03:03 47.62249 -52.74749 484 ft 88 kts 139°
2026-04-19 03:04 47.61601 -52.73923 474 ft 155 kts 140°
2026-04-19 03:04 47.60680 -52.72776 1003 ft 166 kts 137°
2026-04-19 03:04 47.59898 -52.71614 2072 ft 166 kts 141°
2026-04-19 03:04 47.58914 -52.70381 2207 ft 199 kts 143°
2026-04-19 03:05 47.57718 -52.69485 2903 ft 193 kts 170°
2026-04-19 03:05 47.56423 -52.69500 3807 ft 181 kts 192°
2026-04-19 03:05 47.55158 -52.69740 4416 ft 194 kts 189°
2026-04-19 03:05 47.53876 -52.70551 4595 ft 211 kts 224°
2026-04-19 03:06 47.53122 -52.72458 4796 ft 225 kts 259°
2026-04-19 03:06 47.53008 -52.74805 5261 ft 233 kts 270°
2026-04-19 03:06 47.53040 -52.77234 5733 ft 243 kts 272°
2026-04-19 03:06 47.53098 -52.79809 6223 ft 254 kts 273°
2026-04-19 03:07 47.53159 -52.82434 7025 ft 256 kts 273°
2026-04-19 03:07 47.53216 -52.85078 7735 ft 259 kts 273°
2026-04-19 03:07 47.53270 -52.87769 8415 ft 264 kts 273°
2026-04-19 03:07 47.53321 -52.90475 9109 ft 268 kts 274°
2026-04-19 03:08 47.53370 -52.93258 9824 ft 272 kts 274°
2026-04-19 03:08 47.53418 -52.96083 10408 ft 282 kts 274°
2026-04-19 03:08 47.53469 -52.99098 10561 ft 304 kts 274°
2026-04-19 03:08 47.53521 -53.02337 10752 ft 324 kts 273°
2026-04-19 03:09 47.53572 -53.05729 11240 ft 333 kts 273°
2026-04-19 03:09 47.53620 -53.09159 11970 ft 333 kts 273°
2026-04-19 03:09 47.53665 -53.12592 12732 ft 334 kts 273°
2026-04-19 03:09 47.53710 -53.16019 13474 ft 335 kts 273°
2026-04-19 03:10 47.53755 -53.19485 14200 ft 337 kts 273°
2026-04-19 03:10 47.53800 -53.22925 14835 ft 339 kts 273°
2026-04-19 03:10 47.53843 -53.26428 15458 ft 342 kts 273°
2026-04-19 03:10 47.53886 -53.29963 16006 ft 346 kts 273°
2026-04-19 03:11 47.53929 -53.33540 16594 ft 349 kts 272°
2026-04-19 03:11 47.53971 -53.37154 17217 ft 351 kts 272°
2026-04-19 03:11 47.54011 -53.40781 17825 ft 353 kts 272°
2026-04-19 03:11 47.54051 -53.44436 18418 ft 356 kts 272°
2026-04-19 03:12 47.54091 -53.48120 18968 ft 359 kts 272°
2026-04-19 03:12 47.54129 -53.51823 19460 ft 362 kts 272°
2026-04-19 03:12 47.54167 -53.55566 19952 ft 365 kts 273°
2026-04-19 03:12 47.54203 -53.59330 20427 ft 368 kts 273°
2026-04-19 03:13 47.54238 -53.63090 20897 ft 370 kts 273°
2026-04-19 03:13 47.54273 -53.66918 21366 ft 373 kts 273°
2026-04-19 03:13 47.54306 -53.70782 21834 ft 376 kts 273°
2026-04-19 03:13 47.54339 -53.74661 22278 ft 379 kts 273°
2026-04-19 03:14 47.54370 -53.78581 22735 ft 382 kts 273°
2026-04-19 03:14 47.54401 -53.82531 23171 ft 385 kts 273°
2026-04-19 03:14 47.54430 -53.86502 23597 ft 387 kts 273°
2026-04-19 03:14 47.54458 -53.90502 24013 ft 390 kts 273°
2026-04-19 03:15 47.54485 -53.94534 24365 ft 393 kts 273°
2026-04-19 03:15 47.54510 -53.98592 24701 ft 396 kts 273°
2026-04-19 03:15 47.54534 -54.02679 25041 ft 398 kts 273°
2026-04-19 03:15 47.54558 -54.06791 25376 ft 400 kts 273°
2026-04-19 03:16 47.54580 -54.10923 25702 ft 403 kts 274°
2026-04-19 03:16 47.54595 -54.15087 26023 ft 406 kts 272°
2026-04-19 03:16 47.54465 -54.19281 26332 ft 410 kts 270°
2026-04-19 03:16 47.54241 -54.23497 26641 ft 413 kts 269°
2026-04-19 03:17 47.53982 -54.27750 26952 ft 415 kts 269°
2026-04-19 03:17 47.53714 -54.32017 27242 ft 418 kts 269°
2026-04-19 03:17 47.53450 -54.36255 27535 ft 420 kts 269°
2026-04-19 03:17 47.53187 -54.40559 27869 ft 421 kts 269°
2026-04-19 03:18 47.52927 -54.44891 28161 ft 423 kts 269°
2026-04-19 03:18 47.52669 -54.49237 28429 ft 425 kts 269°
2026-04-19 03:18 47.52411 -54.53615 28696 ft 428 kts 269°
2026-04-19 03:18 47.52152 -54.58002 28971 ft 430 kts 269°
2026-04-19 03:19 47.51889 -54.62420 29236 ft 432 kts 269°
2026-04-19 03:19 47.51625 -54.66869 29398 ft 436 kts 269°
2026-04-19 03:19 47.51356 -54.71351 29613 ft 439 kts 269°
2026-04-19 03:19 47.51084 -54.75844 29896 ft 440 kts 269°
2026-04-19 03:20 47.50808 -54.80350 30260 ft 439 kts 269°
2026-04-19 03:20 47.50531 -54.84844 30632 ft 438 kts 269°
2026-04-19 03:20 47.50254 -54.89317 30929 ft 437 kts 270°
2026-04-19 03:20 47.49978 -54.93746 31209 ft 437 kts 269°
2026-04-19 03:21 47.49699 -54.98205 31521 ft 436 kts 270°
2026-04-19 03:21 47.49417 -55.02676 31826 ft 436 kts 270°
2026-04-19 03:21 47.49134 -55.07152 32079 ft 436 kts 270°
2026-04-19 03:21 47.48850 -55.11609 32362 ft 435 kts 270°
2026-04-19 03:22 47.48565 -55.16058 32645 ft 435 kts 270°
2026-04-19 03:22 47.48278 -55.20501 32905 ft 434 kts 270°
2026-04-19 03:22 47.47990 -55.24948 33130 ft 434 kts 270°
2026-04-19 03:22 47.47699 -55.29413 33268 ft 437 kts 270°
2026-04-19 03:23 47.47406 -55.33889 33458 ft 438 kts 270°
2026-04-19 03:23 47.47110 -55.38366 33752 ft 436 kts 270°
2026-04-19 03:23 47.46816 -55.42772 34063 ft 435 kts 270°
2026-04-19 03:23 47.46518 -55.47220 34305 ft 434 kts 270°
2026-04-19 03:24 47.46219 -55.51668 34494 ft 434 kts 270°
2026-04-19 03:24 47.45613 -55.60620 34740 ft 438 kts 269°
2026-04-19 03:24 47.45307 -55.65083 35006 ft 436 kts 269°
2026-04-19 03:25 47.44999 -55.69541 35281 ft 433 kts 269°
2026-04-19 03:25 47.44692 -55.73953 35503 ft 432 kts 269°
2026-04-19 03:25 47.44384 -55.78370 35674 ft 432 kts 269°
2026-04-19 03:25 47.44076 -55.82788 35829 ft 433 kts 269°
2026-04-19 03:26 47.43768 -55.87160 35983 ft 433 kts 269°
2026-04-19 03:26 47.43139 -55.96042 36197 ft 435 kts 269°
2026-04-19 03:26 47.42822 -56.00471 36398 ft 434 kts 269°
2026-04-19 03:27 47.42502 -56.04920 36370 ft 436 kts 269°
2026-04-19 03:27 47.41856 -56.13805 36385 ft 433 kts 269°
2026-04-19 03:28 47.41207 -56.22622 36397 ft 430 kts 269°
2026-04-19 03:28 47.40558 -56.31376 36397 ft 427 kts 269°
2026-04-19 03:29 47.39905 -56.40089 36406 ft 426 kts 268°
2026-04-19 03:29 47.39248 -56.48789 36393 ft 427 kts 268°
2026-04-19 03:30 47.38583 -56.57517 36423 ft 433 kts 268°
2026-04-19 03:30 47.37898 -56.66389 36425 ft 437 kts 268°
2026-04-19 03:31 47.37200 -56.75326 36420 ft 439 kts 268°
2026-04-19 03:31 47.36491 -56.84305 36425 ft 440 kts 268°
2026-04-19 03:32 47.35780 -56.93209 36424 ft 439 kts 268°
2026-04-19 03:32 47.35061 -57.02141 36423 ft 438 kts 268°
2026-04-19 03:33 47.34336 -57.11055 36413 ft 437 kts 267°
2026-04-19 03:33 47.33608 -57.19931 36432 ft 435 kts 267°
2026-04-19 03:34 47.32875 -57.28773 36426 ft 433 kts 267°
2026-04-19 03:34 47.32139 -57.37573 36421 ft 432 kts 267°
2026-04-19 03:35 47.31401 -57.46315 36426 ft 432 kts 267°
2026-04-19 03:35 47.30653 -57.55101 36421 ft 431 kts 267°
2026-04-19 03:36 47.29898 -57.63879 36416 ft 432 kts 267°
2026-04-19 03:36 47.29137 -57.72657 36403 ft 432 kts 266°
2026-04-19 03:37 47.28367 -57.81451 36410 ft 433 kts 266°
2026-04-19 03:37 47.27594 -57.90200 36411 ft 434 kts 266°
2026-04-19 03:38 47.26807 -57.99023 36408 ft 435 kts 266°
2026-04-19 03:38 47.26011 -58.07877 36411 ft 436 kts 266°
2026-04-19 03:39 47.25207 -58.16742 36400 ft 437 kts 266°
2026-04-19 03:39 47.24531 -58.24124 36405 ft 438 kts 266°
2026-04-19 03:40 47.23578 -58.34451 36383 ft 438 kts 265°
2026-04-19 03:40 47.22752 -58.43316 36386 ft 437 kts 265°
2026-04-19 03:41 47.22058 -58.50708 36393 ft 437 kts 265°
2026-04-19 03:41 47.21220 -58.59565 36392 ft 437 kts 265°
2026-04-19 03:42 47.20376 -58.68410 36385 ft 437 kts 265°
2026-04-19 03:42 47.19526 -58.77251 36388 ft 436 kts 265°
2026-04-19 03:43 47.18668 -58.86092 36376 ft 436 kts 265°
2026-04-19 03:43 47.17806 -58.94908 36374 ft 435 kts 265°
2026-04-19 03:44 47.16944 -59.03653 36371 ft 434 kts 265°
2026-04-19 03:44 47.16073 -59.12430 36373 ft 434 kts 265°
2026-04-19 03:45 47.15196 -59.21195 36370 ft 433 kts 265°
2026-04-19 03:45 47.13559 -59.29749 36367 ft 440 kts 248°
2026-04-19 03:46 47.10520 -59.37528 36366 ft 443 kts 242°
2026-04-19 03:46 47.07315 -59.45262 36354 ft 444 kts 242°
2026-04-19 03:47 47.04122 -59.53019 36361 ft 445 kts 242°
2026-04-19 03:47 47.00936 -59.60822 36358 ft 447 kts 242°
2026-04-19 03:48 46.97737 -59.68664 36356 ft 449 kts 242°
2026-04-19 03:48 46.94521 -59.76531 36353 ft 451 kts 242°
2026-04-19 03:49 46.91288 -59.84416 36340 ft 452 kts 242°
2026-04-19 03:49 46.88043 -59.92305 36344 ft 453 kts 242°
2026-04-19 03:50 46.84787 -60.00192 36342 ft 453 kts 242°
2026-04-19 03:50 46.81534 -60.08056 36332 ft 452 kts 242°
2026-04-19 03:51 46.78304 -60.15845 36337 ft 451 kts 241°
2026-04-19 03:51 46.75051 -60.23657 36341 ft 450 kts 241°
2026-04-19 03:52 46.71800 -60.31450 36346 ft 449 kts 241°
2026-04-19 03:52 46.68554 -60.39211 36341 ft 447 kts 241°
2026-04-19 03:53 46.65314 -60.46929 36333 ft 446 kts 241°
2026-04-19 03:53 46.62069 -60.54637 36337 ft 446 kts 241°
2026-04-19 03:54 46.58825 -60.62324 36326 ft 446 kts 241°
2026-04-19 03:54 46.55571 -60.70014 36298 ft 447 kts 241°
2026-04-19 03:55 46.52332 -60.77649 36276 ft 448 kts 240°
2026-04-19 03:55 46.49051 -60.85358 36286 ft 449 kts 240°
2026-04-19 03:56 46.45763 -60.93064 36259 ft 450 kts 240°
2026-04-19 03:56 46.42453 -61.00799 36225 ft 451 kts 240°
2026-04-19 03:57 46.39136 -61.08529 36223 ft 452 kts 240°
2026-04-19 03:57 46.35809 -61.16263 36236 ft 452 kts 241°
2026-04-19 03:58 46.32497 -61.23937 36223 ft 453 kts 241°
2026-04-19 03:58 46.29159 -61.31656 36228 ft 452 kts 242°
2026-04-19 03:59 46.25826 -61.39336 36224 ft 450 kts 240°
2026-04-19 03:59 46.22499 -61.46982 36231 ft 449 kts 239°
2026-04-19 04:00 46.19162 -61.54625 36239 ft 448 kts 241°
2026-04-19 04:00 46.15840 -61.62219 36241 ft 447 kts 240°
2026-04-19 04:01 46.12531 -61.69757 36246 ft 447 kts 241°
2026-04-19 04:01 46.07533 -61.81122 36250 ft 447 kts 240°
2026-04-19 04:02 46.04191 -61.88681 36259 ft 448 kts 240°
2026-04-19 04:02 46.00837 -61.96258 36258 ft 450 kts 240°
2026-04-19 04:03 45.97467 -62.03853 36247 ft 451 kts 239°
2026-04-19 04:03 45.94097 -62.11417 36251 ft 452 kts 240°
2026-04-19 04:04 45.90699 -62.19030 36241 ft 453 kts 239°
2026-04-19 04:04 45.87294 -62.26636 36243 ft 453 kts 240°
2026-04-19 04:05 45.83885 -62.34235 36233 ft 452 kts 239°
2026-04-19 04:05 45.80495 -62.41761 36236 ft 451 kts 239°
2026-04-19 04:06 45.77087 -62.49314 36232 ft 451 kts 239°
2026-04-19 04:06 45.73686 -62.56834 36234 ft 450 kts 239°
2026-04-19 04:07 45.70268 -62.64367 36225 ft 450 kts 239°
2026-04-19 04:07 45.66861 -62.71858 36215 ft 450 kts 239°
2026-04-19 04:08 45.63446 -62.79344 36220 ft 450 kts 240°
2026-04-19 04:08 45.60030 -62.86807 36226 ft 451 kts 238°
2026-04-19 04:09 45.56594 -62.94305 36220 ft 452 kts 240°
2026-04-19 04:09 45.53145 -63.01810 36223 ft 452 kts 238°
2026-04-19 04:10 45.49688 -63.09308 36222 ft 452 kts 240°
2026-04-19 04:10 45.46230 -63.16786 36216 ft 451 kts 238°
2026-04-19 04:11 45.42777 -63.24239 36225 ft 450 kts 240°
2026-04-19 04:11 45.39342 -63.31638 36219 ft 450 kts 238°
2026-04-19 04:12 45.35889 -63.39049 36223 ft 449 kts 239°
2026-04-19 04:12 45.32426 -63.46461 36221 ft 450 kts 238°
2026-04-19 04:13 45.28959 -63.53862 36221 ft 450 kts 238°
2026-04-19 04:13 45.25483 -63.61263 36215 ft 450 kts 237°
2026-04-19 04:14 45.22005 -63.68652 36226 ft 450 kts 238°
2026-04-19 04:14 45.18522 -63.76032 36211 ft 450 kts 237°
2026-04-19 04:15 45.15034 -63.83404 36210 ft 450 kts 238°
2026-04-19 04:15 45.11567 -63.90718 36203 ft 449 kts 237°
2026-04-19 04:16 45.08075 -63.98058 36200 ft 448 kts 237°
2026-04-19 04:16 45.04590 -64.05366 36201 ft 447 kts 238°
2026-04-19 04:17 45.01106 -64.12656 36194 ft 447 kts 238°
2026-04-19 04:17 44.97624 -64.19925 36187 ft 447 kts 238°
2026-04-19 04:18 44.94154 -64.27146 36189 ft 447 kts 239°
2026-04-19 04:18 44.90649 -64.34414 36193 ft 447 kts 238°
2026-04-19 04:19 44.87142 -64.41677 36186 ft 448 kts 238°
2026-04-19 04:19 44.83630 -64.48931 36183 ft 448 kts 239°
2026-04-19 04:20 44.80131 -64.56148 36182 ft 448 kts 237°
2026-04-19 04:20 44.76607 -64.63383 36172 ft 448 kts 239°
2026-04-19 04:21 44.73082 -64.70604 36172 ft 447 kts 237°
2026-04-19 04:21 44.69558 -64.77817 36169 ft 446 kts 238°
2026-04-19 04:22 44.66040 -64.84993 36176 ft 445 kts 237°
2026-04-19 04:22 44.62522 -64.92150 36168 ft 445 kts 236°
2026-04-19 04:23 44.59003 -64.99295 36167 ft 444 kts 238°
2026-04-19 04:23 44.55510 -65.06369 36160 ft 443 kts 236°
2026-04-19 04:24 44.51994 -65.13469 36162 ft 443 kts 237°
2026-04-19 04:24 44.48472 -65.20567 36170 ft 443 kts 236°
2026-04-19 04:25 44.44949 -65.27643 36156 ft 443 kts 238°
2026-04-19 04:25 44.41438 -65.34680 36134 ft 443 kts 236°
2026-04-19 04:26 44.37916 -65.41729 36138 ft 442 kts 237°
2026-04-19 04:26 44.34398 -65.48751 36142 ft 441 kts 236°
2026-04-19 04:27 44.30853 -65.55800 36127 ft 441 kts 237°
2026-04-19 04:27 44.27333 -65.62790 36121 ft 440 kts 236°
2026-04-19 04:28 44.23821 -65.69751 36133 ft 441 kts 237°
2026-04-19 04:28 44.20874 -65.75579 36140 ft 441 kts 238°
2026-04-19 04:29 44.17331 -65.82561 36138 ft 442 kts 237°
2026-04-19 04:29 44.13773 -65.89558 36124 ft 443 kts 238°
2026-04-19 04:30 44.10204 -65.96566 36099 ft 444 kts 236°
2026-04-19 04:30 44.06628 -66.03569 36103 ft 444 kts 237°
2026-04-19 04:31 44.03039 -66.10573 36095 ft 444 kts 237°
2026-04-19 04:31 43.99457 -66.17559 36082 ft 444 kts 236°
2026-04-19 04:32 43.95866 -66.24537 36094 ft 443 kts 238°
2026-04-19 04:32 43.92278 -66.31496 36108 ft 443 kts 236°
2026-04-19 04:33 43.88691 -66.38433 36083 ft 442 kts 236°
2026-04-19 04:33 43.85109 -66.45348 36075 ft 441 kts 238°
2026-04-19 04:34 43.81541 -66.52221 36083 ft 441 kts 235°
2026-04-19 04:34 43.77955 -66.59110 36058 ft 441 kts 238°
2026-04-19 04:35 43.74363 -66.65992 36062 ft 441 kts 235°
2026-04-19 04:35 43.70762 -66.72877 36055 ft 441 kts 236°
2026-04-19 04:36 43.67162 -66.79743 36049 ft 441 kts 237°
2026-04-19 04:36 43.63580 -66.86565 36044 ft 441 kts 235°
2026-04-19 04:37 43.59978 -66.93409 36058 ft 440 kts 237°
2026-04-19 04:37 43.56383 -67.00262 36276 ft 441 kts 237°
2026-04-19 04:38 43.53215 -67.07508 36662 ft 438 kts 242°
2026-04-19 04:38 43.51711 -67.11157 36851 ft 438 kts 243°
2026-04-19 04:38 43.50210 -67.14817 36947 ft 439 kts 242°
2026-04-19 04:39 43.48722 -67.18425 37104 ft 439 kts 241°
2026-04-19 04:39 43.47202 -67.22076 37221 ft 439 kts 244°
2026-04-19 04:39 43.45676 -67.25711 37434 ft 438 kts 241°
2026-04-19 04:39 43.44149 -67.29339 37531 ft 439 kts 242°
2026-04-19 04:40 43.42617 -67.32968 37690 ft 438 kts 244°
2026-04-19 04:40 43.41082 -67.36595 37813 ft 438 kts 242°
2026-04-19 04:40 43.39546 -67.40221 37975 ft 436 kts 242°
2026-04-19 04:40 43.38024 -67.43803 38017 ft 432 kts 242°
2026-04-19 04:41 43.34997 -67.50925 38033 ft 432 kts 243°
2026-04-19 04:41 43.31945 -67.58083 38022 ft 436 kts 242°
2026-04-19 04:42 43.28883 -67.65248 38030 ft 440 kts 241°
2026-04-19 04:42 43.25768 -67.72527 38040 ft 444 kts 241°
2026-04-19 04:43 43.22622 -67.79843 38020 ft 445 kts 240°
2026-04-19 04:43 43.19487 -67.87118 38012 ft 439 kts 240°
2026-04-19 04:44 43.16395 -67.94272 38032 ft 435 kts 243°
2026-04-19 04:44 43.13317 -68.01387 38023 ft 433 kts 240°
2026-04-19 04:45 43.10272 -68.08409 38019 ft 430 kts 240°
2026-04-19 04:45 43.07226 -68.15415 38025 ft 427 kts 240°
2026-04-19 04:46 43.04185 -68.22390 38017 ft 425 kts 240°
2026-04-19 04:46 43.01157 -68.29322 38026 ft 424 kts 240°
2026-04-19 04:47 42.98129 -68.36237 38025 ft 424 kts 240°
2026-04-19 04:47 42.95094 -68.43149 38023 ft 425 kts 240°
2026-04-19 04:48 42.92067 -68.50029 38008 ft 426 kts 240°
2026-04-19 04:48 42.89002 -68.56979 38029 ft 428 kts 240°
2026-04-19 04:49 42.85922 -68.63945 38025 ft 429 kts 240°
2026-04-19 04:49 42.82828 -68.70926 38014 ft 431 kts 240°
2026-04-19 04:50 42.79724 -68.77913 38027 ft 431 kts 240°
2026-04-19 04:50 42.76615 -68.84897 38026 ft 431 kts 240°
2026-04-19 04:51 42.73514 -68.91843 38017 ft 425 kts 239°
2026-04-19 04:51 42.70483 -68.98619 38014 ft 418 kts 239°
2026-04-19 04:52 42.67460 -69.05360 38033 ft 417 kts 239°
2026-04-19 04:52 42.64440 -69.12082 38020 ft 416 kts 239°
2026-04-19 04:53 42.61422 -69.18782 38031 ft 416 kts 239°
2026-04-19 04:53 42.58390 -69.25499 38025 ft 417 kts 239°
2026-04-19 04:54 42.55349 -69.32220 38027 ft 418 kts 239°
2026-04-19 04:54 42.52318 -69.38902 38019 ft 419 kts 239°
2026-04-19 04:55 42.49254 -69.45645 38035 ft 420 kts 239°
2026-04-19 04:55 42.46178 -69.52396 38030 ft 421 kts 239°
2026-04-19 04:56 42.43093 -69.59153 38019 ft 422 kts 238°
2026-04-19 04:56 42.39999 -69.65914 38016 ft 422 kts 238°
2026-04-19 04:57 42.36909 -69.72651 38027 ft 421 kts 238°
2026-04-19 04:57 42.33818 -69.79375 38025 ft 421 kts 238°
2026-04-19 04:58 42.30729 -69.86079 38025 ft 420 kts 238°
2026-04-19 04:58 42.27654 -69.92740 38016 ft 420 kts 238°
2026-04-19 04:59 42.24558 -69.99430 38009 ft 418 kts 238°
2026-04-19 04:59 42.21475 -70.06075 38028 ft 417 kts 238°
2026-04-19 05:00 42.18398 -70.12696 38057 ft 416 kts 238°
2026-04-19 05:00 42.15338 -70.19266 38054 ft 415 kts 238°
2026-04-19 05:01 42.12265 -70.25848 38057 ft 415 kts 238°
2026-04-19 05:01 42.09192 -70.32418 38032 ft 414 kts 238°
2026-04-19 05:02 42.06116 -70.38981 38036 ft 415 kts 238°
2026-04-19 05:02 42.03301 -70.45747 38040 ft 414 kts 247°
2026-04-19 05:03 42.01090 -70.52907 38037 ft 415 kts 248°
2026-04-19 05:03 41.98901 -70.60047 38030 ft 416 kts 247°
2026-04-19 05:04 41.96660 -70.67231 38008 ft 417 kts 247°
2026-04-19 05:04 41.94393 -70.74420 38024 ft 418 kts 247°
2026-04-19 05:05 41.92110 -70.81623 38013 ft 419 kts 247°
2026-04-19 05:05 41.89820 -70.88832 38045 ft 420 kts 247°
2026-04-19 05:06 41.87522 -70.96046 38025 ft 421 kts 247°
2026-04-19 05:06 41.85231 -71.03221 38024 ft 421 kts 247°
2026-04-19 05:07 41.82915 -71.10457 37741 ft 425 kts 247°
2026-04-19 05:07 41.81750 -71.14089 37443 ft 421 kts 247°
2026-04-19 05:07 41.80598 -71.17675 37052 ft 416 kts 246°
2026-04-19 05:08 41.79459 -71.21217 36659 ft 411 kts 246°
2026-04-19 05:08 41.77213 -71.28188 35898 ft 403 kts 246°
2026-04-19 05:08 41.76105 -71.31622 35522 ft 399 kts 246°
2026-04-19 05:09 41.75005 -71.35028 35139 ft 396 kts 246°
2026-04-19 05:09 41.73910 -71.38405 34756 ft 393 kts 245°
2026-04-19 05:09 41.72595 -71.41593 34368 ft 391 kts 236°
2026-04-19 05:09 41.70931 -71.44461 34004 ft 388 kts 228°
2026-04-19 05:10 41.68983 -71.46943 33566 ft 386 kts 221°
2026-04-19 05:10 41.66958 -71.49197 33186 ft 383 kts 221°
2026-04-19 05:10 41.64905 -71.51454 32788 ft 380 kts 220°
2026-04-19 05:10 41.62863 -71.53697 32414 ft 377 kts 221°
2026-04-19 05:11 41.60844 -71.55923 32051 ft 375 kts 221°
2026-04-19 05:11 41.58843 -71.58138 31676 ft 373 kts 221°
2026-04-19 05:11 41.56858 -71.60340 31311 ft 370 kts 221°
2026-04-19 05:11 41.54883 -71.62534 30958 ft 370 kts 221°
2026-04-19 05:12 41.52902 -71.64735 30599 ft 372 kts 221°
2026-04-19 05:12 41.50906 -71.66953 30219 ft 371 kts 221°
2026-04-19 05:12 41.48926 -71.69151 29823 ft 370 kts 221°
2026-04-19 05:12 41.46955 -71.71336 29417 ft 367 kts 221°
2026-04-19 05:13 41.44996 -71.73506 29020 ft 364 kts 221°
2026-04-19 05:13 41.43078 -71.75629 28642 ft 361 kts 221°
2026-04-19 05:13 41.41154 -71.77758 28264 ft 359 kts 221°
2026-04-19 05:13 41.39243 -71.79871 27894 ft 356 kts 221°
2026-04-19 05:14 41.37344 -71.81968 27526 ft 353 kts 221°
2026-04-19 05:14 41.35456 -71.84053 27159 ft 351 kts 221°
2026-04-19 05:14 41.33582 -71.86121 26794 ft 349 kts 221°
2026-04-19 05:14 41.31716 -71.88178 26437 ft 347 kts 221°
2026-04-19 05:15 41.29860 -71.90221 26070 ft 345 kts 221°
2026-04-19 05:15 41.28020 -71.92245 25717 ft 343 kts 221°
2026-04-19 05:15 41.26179 -71.94267 25338 ft 342 kts 221°
2026-04-19 05:15 41.24965 -71.95599 25094 ft 341 kts 221°
2026-04-19 05:16 41.23138 -71.97604 24724 ft 340 kts 221°
2026-04-19 05:16 41.21319 -71.99600 24371 ft 339 kts 222°
2026-04-19 05:16 41.19500 -72.01594 23994 ft 338 kts 222°
2026-04-19 05:16 41.17688 -72.03580 23644 ft 338 kts 222°
2026-04-19 05:17 41.15872 -72.05569 23241 ft 336 kts 222°
2026-04-19 05:17 41.14074 -72.07536 22864 ft 334 kts 222°
2026-04-19 05:17 41.12284 -72.09494 22502 ft 332 kts 223°
2026-04-19 05:17 41.10705 -72.11690 22134 ft 327 kts 235°
2026-04-19 05:18 41.09493 -72.14218 21770 ft 324 kts 243°
2026-04-19 05:18 41.08653 -72.16949 21407 ft 322 kts 251°
2026-04-19 05:18 41.07952 -72.19762 21060 ft 320 kts 252°
2026-04-19 05:18 41.07274 -72.22565 20708 ft 318 kts 252°
2026-04-19 05:19 41.06599 -72.25354 20359 ft 317 kts 252°
2026-04-19 05:19 41.05924 -72.28129 20043 ft 315 kts 251°
2026-04-19 05:19 41.05248 -72.30885 19704 ft 313 kts 251°
2026-04-19 05:19 41.04573 -72.33622 19367 ft 312 kts 251°
2026-04-19 05:20 41.03904 -72.36322 19018 ft 312 kts 251°
2026-04-19 05:20 41.03228 -72.39043 18685 ft 310 kts 251°
2026-04-19 05:20 41.02552 -72.41755 18337 ft 310 kts 251°
2026-04-19 05:20 41.01878 -72.44458 17956 ft 309 kts 251°
2026-04-19 05:21 41.01204 -72.47152 17596 ft 307 kts 251°
2026-04-19 05:21 41.00536 -72.49824 17263 ft 305 kts 251°
2026-04-19 05:21 40.99870 -72.52480 16923 ft 303 kts 251°
2026-04-19 05:21 40.99206 -72.55126 16577 ft 302 kts 251°
2026-04-19 05:22 40.98547 -72.57752 16231 ft 301 kts 251°
2026-04-19 05:22 40.97889 -72.60369 15903 ft 299 kts 250°
2026-04-19 05:22 40.97231 -72.62987 15577 ft 297 kts 250°
2026-04-19 05:22 40.96578 -72.65577 15238 ft 296 kts 250°
2026-04-19 05:23 40.95927 -72.68158 14916 ft 294 kts 250°
2026-04-19 05:23 40.95289 -72.70689 14582 ft 293 kts 250°
2026-04-19 05:23 40.94643 -72.73245 14237 ft 293 kts 250°
2026-04-19 05:23 40.93999 -72.75792 13906 ft 292 kts 250°
2026-04-19 05:24 40.93352 -72.78341 13542 ft 291 kts 250°
2026-04-19 05:24 40.92706 -72.80861 13281 ft 286 kts 249°
2026-04-19 05:24 40.92055 -72.83286 13202 ft 276 kts 249°
2026-04-19 05:24 40.91410 -72.85658 12946 ft 272 kts 249°
2026-04-19 05:25 40.90768 -72.88007 12598 ft 272 kts 250°
2026-04-19 05:25 40.90126 -72.90362 12220 ft 273 kts 250°
2026-04-19 05:25 40.89483 -72.92719 11925 ft 271 kts 250°
2026-04-19 05:25 40.88849 -72.95045 11625 ft 267 kts 250°
2026-04-19 05:26 40.88227 -72.97331 11257 ft 262 kts 250°
2026-04-19 05:26 40.87607 -72.99602 10793 ft 262 kts 250°
2026-04-19 05:26 40.86992 -73.01858 10350 ft 260 kts 250°
2026-04-19 05:26 40.86384 -73.04085 9968 ft 256 kts 251°
2026-04-19 05:27 40.85790 -73.06262 9540 ft 253 kts 251°
2026-04-19 05:27 40.85198 -73.08427 9217 ft 246 kts 250°
2026-04-19 05:27 40.84620 -73.10543 8976 ft 243 kts 250°
2026-04-19 05:27 40.84062 -73.12578 8915 ft 228 kts 250°
2026-04-19 05:28 40.83538 -73.14490 8800 ft 215 kts 250°
2026-04-19 05:28 40.83045 -73.16289 8692 ft 202 kts 250°
2026-04-19 05:28 40.82560 -73.18061 8225 ft 206 kts 250°
2026-04-19 05:28 40.82077 -73.19823 7934 ft 200 kts 250°
2026-04-19 05:29 40.81619 -73.21493 7725 ft 187 kts 250°
2026-04-19 05:29 40.81179 -73.23091 7555 ft 184 kts 250°
2026-04-19 05:29 40.80743 -73.24678 7367 ft 184 kts 250°
2026-04-19 05:29 40.80305 -73.26269 7182 ft 185 kts 250°
2026-04-19 05:30 40.79863 -73.27869 6981 ft 186 kts 250°
2026-04-19 05:30 40.79426 -73.29454 6792 ft 187 kts 250°
2026-04-19 05:30 40.79162 -73.31116 6589 ft 185 kts 267°
2026-04-19 05:30 40.79212 -73.32788 6393 ft 180 kts 267°
2026-04-19 05:31 40.79245 -73.34429 6181 ft 178 kts 266°
2026-04-19 05:31 40.79274 -73.36057 5984 ft 177 kts 266°
2026-04-19 05:31 40.79304 -73.37657 5761 ft 171 kts 266°
2026-04-19 05:31 40.79332 -73.39201 5561 ft 166 kts 265°
2026-04-19 05:32 40.79357 -73.40724 5366 ft 166 kts 265°
2026-04-19 05:32 40.79382 -73.42236 5191 ft 168 kts 265°
2026-04-19 05:32 40.79402 -73.43802 5004 ft 170 kts 265°
2026-04-19 05:32 40.79431 -73.45372 4818 ft 172 kts 264°
2026-04-19 05:33 40.79458 -73.46943 4637 ft 173 kts 264°
2026-04-19 05:33 40.79485 -73.48528 4428 ft 173 kts 264°
2026-04-19 05:33 40.79511 -73.50109 4224 ft 172 kts 263°
2026-04-19 05:33 40.79538 -73.51681 4044 ft 169 kts 263°
2026-04-19 05:34 40.79564 -73.53195 3948 ft 163 kts 263°
2026-04-19 05:34 40.79586 -73.54720 3897 ft 169 kts 263°
2026-04-19 05:34 40.79610 -73.56288 3820 ft 171 kts 263°
2026-04-19 05:34 40.79634 -73.57849 3739 ft 169 kts 263°
2026-04-19 05:35 40.79658 -73.59399 3668 ft 168 kts 263°
2026-04-19 05:35 40.79681 -73.60938 3568 ft 169 kts 263°
2026-04-19 05:35 40.79603 -73.62479 3425 ft 163 kts 242°
2026-04-19 05:35 40.78903 -73.63550 3355 ft 158 kts 219°
2026-04-19 05:36 40.78041 -73.64487 3176 ft 161 kts 216°
2026-04-19 05:36 40.77167 -73.65381 2974 ft 159 kts 215°
2026-04-19 05:36 40.76272 -73.66206 2767 ft 155 kts 211°
2026-04-19 05:36 40.75367 -73.66954 2563 ft 153 kts 210°
2026-04-19 05:37 40.74472 -73.67667 2348 ft 148 kts 209°
2026-04-19 05:37 40.73594 -73.68359 2164 ft 147 kts 208°
2026-04-19 05:37 40.72708 -73.69052 1970 ft 150 kts 208°
2026-04-19 05:37 40.71829 -73.69743 1770 ft 143 kts 208°
2026-04-19 05:38 40.70991 -73.70402 1576 ft 139 kts 207°
2026-04-19 05:38 40.70161 -73.71052 1381 ft 139 kts 208°
2026-04-19 05:38 40.69323 -73.71709 1181 ft 141 kts 207°
2026-04-19 05:38 40.68467 -73.72381 996 ft 145 kts 208°
2026-04-19 05:39 40.67594 -73.73068 783 ft 149 kts 208°
2026-04-19 05:39 40.66688 -73.73778 572 ft 151 kts 207°
2026-04-19 05:39 40.65784 -73.74486 291 ft 153 kts 207°
2026-04-19 05:39 40.64907 -73.75196 129 ft 145 kts 207°
2026-04-19 05:40 40.64064 -73.75867 30 ft 135 kts 206°
2026-04-19 05:40 40.63415 -73.76353 23 ft 77 kts 210°
2026-04-19 05:40 40.63098 -73.76605 18 ft 39 kts 217°
2026-04-19 05:40 40.62953 -73.76837 19 ft 25 kts 241°
2026-04-19 05:41 40.62929 -73.76957 20 ft 9 kts 282°
2026-04-19 05:41 40.62938 -73.76986 22 ft 0 kts 297°
2026-04-19 05:42 40.62949 -73.77012 19 ft 9 kts 299°
2026-04-19 05:42 40.62997 -73.77118 20 ft 18 kts 301°
2026-04-19 05:42 40.63075 -73.77289 20 ft 24 kts 300°
2026-04-19 05:42 40.63155 -73.77472 21 ft 19 kts 297°
2026-04-19 05:43 40.63206 -73.77578 22 ft 15 kts 302°
2026-04-19 05:43 40.63274 -73.77727 23 ft 23 kts 301°
2026-04-19 05:43 40.63329 -73.77849 21 ft 14 kts 300°
2026-04-19 05:43 40.63342 -73.77879 21 ft 0 kts 300°
2026-04-19 05:44 40.63344 -73.77884 20 ft 4 kts 300°
2026-04-19 05:45 40.63400 -73.77914 20 ft 11 kts 20°
2026-04-19 05:45 40.63496 -73.77833 20 ft 21 kts 32°
2026-04-19 05:45 40.63612 -73.77743 19 ft 19 kts 30°
2026-04-19 05:45 40.63718 -73.77660 19 ft 9 kts 30°
2026-04-19 05:46 40.63781 -73.77688 19 ft 13 kts 311°
2026-04-19 05:46 40.63863 -73.77766 19 ft 14 kts 326°
2026-04-19 05:46 40.63896 -73.77795 20 ft 8 kts 325°
2026-04-19 05:46 40.63973 -73.77857 19 ft 17 kts 332°
2026-04-19 05:47 40.64055 -73.77882 19 ft 13 kts
2026-04-19 05:47 40.64123 -73.77907 19 ft 15 kts 331°
2026-04-19 05:47 40.64194 -73.77960 19 ft 8 kts 329°
2026-04-19 05:47 40.64232 -73.78002 19 ft 5 kts 324°
2026-04-19 05:48 40.64265 -73.78011 19 ft 5 kts
2026-04-19 05:48 40.64286 -73.78008 19 ft 2 kts
2026-04-19 05:48 40.64291 -73.78007 19 ft 0 kts